[[{"header":{"parameterUnit":"m.s-1","parameterCategory":2,"la1":30.2991,"la2":30.254,"lo1":-89.0895,"lo2":-89.0444,"dy":0.0017,"dx":0.0017,"nx":28,"ny":28,"refTime":"2024-03-21T09:00:00:Z","depth":"0","parameterNumber":2,"parameterNumberName":"U-component_of_CURRENTS"},"data":[0,0,0,0,0,0,0,0,0,0,0,0,0,0,0,0,0,0,0,0,0,0,0,0,0,0,0,0,0,0,0,0,0,0,0,0,0,0,0,0,0,0,0,0,0,0,0,0,0,0,0,0,0,0,0,0,0,0,0.2426,0.2426,0,0.246,0.246,0.246,0.2465,0.2465,0.2465,0.2464,0.246,0.246,0.246,0,0,0,0,0,0,0,0,0,0,0,0,0,0.242,0.242,0.2426,0.2426,0.2427,0.246,0.246,0.246,0.2465,0.2465,0.2465,0.2464,0.246,0.246,0.246,0,0,0,0,0,0,0,0,0,0,0,0,0,0.2434,0.242,0.2425,0.2434,0.2435,0.2459,0.246,0.246,0.2465,0.2465,0.2464,0.2464,0.246,0.246,0.246,0.2467,0,0,0.246,0.246,0,0,0,0,0,0,0,0,0.2433,0.2434,0.2432,0.2433,0.2435,0.2459,0.2456,0.2461,0.2465,0.2453,0.2464,0.2464,0.2457,0.2457,0.2463,0.2467,0.2467,0.246,0.246,0.246,0.246,0,0,0,0,0,0,0,0.2432,0.2433,0.2438,0.2433,0.2434,0.2455,0.2456,0.2458,0.2455,0.2454,0.2454,0.246,0.2457,0.2463,0.2463,0.2467,0.246,0.246,0.246,0.2461,0.2525,0.2526,0,0,0,0,0,0,0.2428,0.2432,0.2437,0.2439,0.2434,0.2455,0.2456,0.245,0.2455,0.2456,0.246,0.246,0.2463,0.2463,0.2463,0.2516,0.246,0.2461,0.2461,0.2523,0.2525,0.2527,0,0,0,0,0,0,0.2427,0.2427,0.2436,0.2438,0.2441,0.2455,0.2449,0.2451,0.2461,0.2461,0.2461,0.2467,0.2463,0.2463,0.2483,0.2513,0.2461,0.2461,0.2521,0.2524,0.2526,0.2593,0,0,0,0,0,0,0.2427,0.2426,0.2421,0.2437,0.244,0.2458,0.245,0.2452,0.2465,0.2465,0.2467,0.2466,0.2463,0.2483,0.2484,0.2513,0.2461,0.2519,0.2522,0.2525,0.2588,0.2597,0.2604,0,0,0,0,0,0.2426,0.2424,0.242,0.2421,0.2432,0.2459,0.2463,0.2472,0.2466,0.2477,0.2485,0.2466,0.2503,0.2485,0.2485,0.2514,0.2517,0.2521,0.2525,0.2585,0.2595,0.2604,0,0,0,0,0,0,0.2412,0.2425,0.2421,0.242,0.2441,0.2461,0.2472,0.2475,0.2491,0.2491,0.2484,0.2485,0.2517,0.2506,0.2486,0.2543,0.2508,0.2512,0.2554,0.2564,0.2572,0.2586,0.2461,0,0,0,0,0,0.2407,0.2414,0.2429,0.243,0.244,0.2455,0.2466,0.2476,0.2492,0.2498,0.25,0.2509,0.2533,0.2539,0.2552,0.2577,0.2594,0.2597,0.2605,0.2612,0.2625,0.2682,0.2696,0.2539,0.2539,0.2539,0,0,0.2402,0.2411,0.2413,0.2429,0.2444,0.2477,0.2461,0.2487,0.2517,0.2495,0.2529,0.2535,0.2546,0.2584,0.2597,0.2577,0.2669,0.2617,0.2623,0.2632,0.2687,0.2703,0.2716,0.2541,0.2541,0.254,0,0,0.2414,0.2404,0.2423,0.2446,0.2476,0.2492,0.25,0.2524,0.2536,0.257,0.2571,0.2598,0.2616,0.2641,0.2654,0.2713,0.2711,0.2712,0.2762,0.2817,0.2831,0.2843,0.2896,0.2912,0.2714,0.2714,0.2714,0,0.2409,0.243,0.2434,0.2468,0.2493,0.2501,0.2539,0.256,0.2588,0.2606,0.259,0.2656,0.2651,0.2722,0.2741,0.2732,0.2762,0.2723,0.2829,0.2841,0.2852,0.2903,0.292,0.2718,0.2717,0.2717,0.2716,0,0.2446,0.2466,0.2482,0.2528,0.2556,0.2588,0.262,0.2646,0.2656,0.2676,0.2736,0.2748,0.2789,0.2793,0.2782,0.2865,0.286,0.2834,0.2804,0.2872,0.2921,0.2938,0.2723,0.2721,0.272,0.2719,0,0,0.2427,0.2494,0.2501,0.2533,0.2589,0.2616,0.2674,0.2725,0.2767,0.2795,0.2857,0.2895,0.2899,0.2915,0.2915,0.2954,0.3049,0.2928,0.2929,0.2981,0.3181,0.3054,0.306,0.3044,0.3047,0.3049,0.3188,0,0.2455,0.2524,0.2553,0.2623,0.2663,0.2697,0.275,0.2799,0.2834,0.2893,0.2925,0.2977,0.2949,0.2973,0.3017,0.3038,0.3095,0.3015,0.3107,0.311,0.2989,0.3075,0.2893,0.2989,0.3204,0.3206,0.3208,0,0.2484,0.2528,0.2598,0.2675,0.2694,0.2738,0.2822,0.2873,0.2956,0.2982,0.3051,0.3072,0.3149,0.3104,0.3213,0.3165,0.3187,0.32,0.3205,0.3074,0.3013,0.2954,0.3011,0.2907,0.3234,0.3231,0.323,0,0.2477,0.2557,0.2611,0.264,0.273,0.2766,0.2815,0.2896,0.2938,0.3045,0.3083,0.3183,0.323,0.3288,0.3311,0.3273,0.3422,0.337,0.3293,0.3285,0.314,0.3112,0.3103,0.3466,0.3466,0.3465,0.3465,0,0.2499,0.2546,0.2609,0.2645,0.2703,0.277,0.2838,0.2901,0.2991,0.3047,0.3127,0.319,0.3276,0.3356,0.3373,0.3389,0.3483,0.3327,0.3318,0.3156,0.313,0.3036,0.3012,0.3471,0.3469,0.3468,0.3468,0,0.2501,0.2543,0.2604,0.2683,0.2703,0.2747,0.2827,0.2882,0.2969,0.3052,0.3087,0.3218,0.331,0.339,0.3492,0.3448,0.3372,0.347,0.3271,0.3233,0.2984,0.2971,0.2902,0.2818,0.339,0.3388,0.3386,0,0.2513,0.2546,0.2611,0.2634,0.267,0.273,0.2772,0.2859,0.2909,0.3053,0.3091,0.3219,0.3281,0.3393,0.3363,0.3394,0.332,0.3225,0.3095,0.2963,0.2945,0.2864,0.2795,0.2954,0.2949,0.2945,0.2941,0,0.2536,0.2552,0.2596,0.2634,0.2669,0.2702,0.2762,0.2787,0.2896,0.2951,0.3041,0.3106,0.3199,0.3143,0.3176,0.3155,0.3025,0.313,0.3059,0.2658,0.2509,0.2424,0.2883,0.2902,0.2906,0.2909,0.2911,0.2913,0.2537,0.2557,0.2598,0.2618,0.2655,0.2665,0.2652,0.2713,0.2751,0.2801,0.2929,0.2955,0.2939,0.2931,0.2904,0.2689,0.2751,0.2553,0.2574,0.2524,0.2347,0.2707,0.2657,0.2659,0.2661,0.2663,0.2665,0,0.2519,0.2542,0.2579,0.2583,0.258,0.2613,0.2631,0.2593,0.2578,0.2667,0.2702,0.2631,0.2552,0.2517,0.2319,0.2167,0.2083,0.2089,0.1954,0.1933,0.2309,0.2186,0.1949,0.1949,0.1949,0.1949,0.1949,0.1949,0.2517,0.2525,0.2525,0.2487,0.2488,0.2434,0.2409,0.2369,0.239,0.2319,0.2262,0.2276,0.2232,0.2081,0.1869,0.1807,0.168,0.1564,0.163,0.1899,0.1944,0.1987,0.1864,0.1562,0.1562,0.1128,0.1125,0.1122]},{"header":{"parameterUnit":"m.s-1","parameterCategory":2,"la1":30.2991,"la2":30.254,"lo1":-89.0895,"lo2":-89.0444,"dy":0.0017,"dx":0.0017,"nx":28,"ny":28,"refTime":"2024-03-21T09:00:00:Z","depth":"0","parameterNumber":3,"parameterNumberName":"V-component_of_CURRENTS"},"data":[0,0,0,0,0,0,0,0,0,0,0,0,0,0,0,0,0,0,0,0,0,0,0,0,0,0,0,0,0,0,0,0,0,0,0,0,0,0,0,0,0,0,0,0,0,0,0,0,0,0,0,0,0,0,0,0,0,0,-0.0132,-0.0133,0,-0.0184,-0.0184,-0.0185,-0.022,-0.022,-0.022,-0.0221,-0.0267,-0.0268,-0.0269,0,0,0,0,0,0,0,0,0,0,0,0,0,-0.0084,-0.0085,-0.0132,-0.0133,-0.0133,-0.0183,-0.0184,-0.0185,-0.022,-0.022,-0.0221,-0.0221,-0.0267,-0.0268,-0.0269,0,0,0,0,0,0,0,0,0,0,0,0,0,-0.0118,-0.0085,-0.0132,-0.0156,-0.0159,-0.0183,-0.0184,-0.0185,-0.022,-0.022,-0.0221,-0.0221,-0.0267,-0.0268,-0.027,-0.0274,0,0,-0.0275,-0.0275,0,0,0,0,0,0,0,0,-0.0116,-0.012,-0.0152,-0.0154,-0.0157,-0.0195,-0.0185,-0.0214,-0.022,-0.0198,-0.0221,-0.0221,-0.0242,-0.0246,-0.0256,-0.0276,-0.0278,-0.0275,-0.0276,-0.0276,-0.0277,0,0,0,0,0,0,0,-0.0114,-0.0118,-0.0153,-0.0153,-0.0156,-0.0171,-0.0176,-0.0191,-0.0218,-0.02,-0.0202,-0.0206,-0.0244,-0.0254,-0.0257,-0.0279,-0.0275,-0.0276,-0.0277,-0.0278,-0.0308,-0.0308,0,0,0,0,0,0,-0.0104,-0.0116,-0.0152,-0.0155,-0.0136,-0.0172,-0.0177,-0.0183,-0.0218,-0.0224,-0.0206,-0.0208,-0.0251,-0.0255,-0.0259,-0.0265,-0.0276,-0.0278,-0.0279,-0.0308,-0.0308,-0.0308,0,0,0,0,0,0,-0.0103,-0.0107,-0.0149,-0.0136,-0.0142,-0.0172,-0.0179,-0.0184,-0.0192,-0.0223,-0.0229,-0.0208,-0.0252,-0.0257,-0.0269,-0.0267,-0.0279,-0.028,-0.0309,-0.0308,-0.0308,-0.0277,0,0,0,0,0,0,-0.0102,-0.0106,-0.0106,-0.0135,-0.0142,-0.0158,-0.0178,-0.0185,-0.0195,-0.0197,-0.0227,-0.0232,-0.0252,-0.0266,-0.027,-0.0269,-0.0281,-0.0309,-0.0308,-0.0308,-0.0279,-0.0276,-0.0274,0,0,0,0,0,-0.01,-0.0096,-0.0106,-0.011,-0.0141,-0.0158,-0.0163,-0.0186,-0.0194,-0.0195,-0.0215,-0.023,-0.0267,-0.0267,-0.0272,-0.0272,-0.0309,-0.0309,-0.0308,-0.028,-0.0277,-0.0274,0,0,0,0,0,0,-0.0075,-0.01,-0.0111,-0.0116,-0.0133,-0.0164,-0.0166,-0.018,-0.0198,-0.0199,-0.0228,-0.0234,-0.0245,-0.026,-0.0259,-0.028,-0.0291,-0.0291,-0.0267,-0.0265,-0.0263,-0.0227,-0.0283,0,0,0,0,0,-0.0069,-0.0073,-0.0099,-0.0102,-0.0108,-0.0135,-0.0144,-0.0159,-0.0179,-0.0187,-0.0208,-0.0229,-0.0248,-0.0257,-0.0275,-0.0283,-0.0259,-0.0287,-0.0284,-0.0282,-0.0257,-0.0227,-0.0219,-0.0307,-0.0307,-0.0307,0,0,-0.006,-0.0074,-0.0077,-0.0097,-0.0112,-0.0116,-0.0141,-0.0151,-0.0154,-0.0189,-0.0196,-0.022,-0.0248,-0.0261,-0.0267,-0.0273,-0.0243,-0.0282,-0.028,-0.0255,-0.0226,-0.0217,-0.0209,-0.0307,-0.0307,-0.0307,0,0,-0.0042,-0.0056,-0.0052,-0.0064,-0.0082,-0.0098,-0.0097,-0.0124,-0.0135,-0.0147,-0.0174,-0.0189,-0.0221,-0.0237,-0.025,-0.0243,-0.0232,-0.0258,-0.0218,-0.019,-0.0182,-0.0174,-0.012,-0.0108,-0.0257,-0.0257,-0.0257,0,-0.0029,-0.0028,-0.0053,-0.0051,-0.0053,-0.0086,-0.0077,-0.0096,-0.0123,-0.012,-0.0143,-0.0163,-0.0205,-0.0199,-0.0214,-0.0236,-0.0207,-0.0228,-0.0184,-0.0177,-0.0169,-0.0116,-0.0103,-0.0255,-0.0255,-0.0255,-0.0256,0,-0.0009,-0.0006,-0.0003,-0.0011,-0.0018,-0.0016,-0.0041,-0.0047,-0.0065,-0.0078,-0.0073,-0.0114,-0.0116,-0.0149,-0.0189,-0.0162,-0.0152,-0.0184,-0.0186,-0.0158,-0.0104,-0.0091,-0.0253,-0.0254,-0.0254,-0.0254,0,0,0.0021,0.0014,0.0017,0.0032,0.0007,0.0013,0.0005,0.0003,0.0032,-0.0006,0.0043,-0.0029,-0.0033,-0.0047,-0.0085,-0.0082,-0.0035,-0.0115,-0.0114,-0.0051,0.0058,0.0023,0.0034,-0.0059,-0.0057,-0.0055,0.008,0,0.005,0.0076,0.0056,0.0086,0.0103,0.0074,0.0084,0.0076,0.0071,0.0109,0.0075,0.01,0.0002,0.002,0.0002,-0.0019,-0.0001,-0.0066,0.0013,0.0017,-0.001,0.0047,0.003,0.0145,0.0093,0.0095,0.0097,0,0.0082,0.0099,0.0137,0.0162,0.0168,0.0182,0.0219,0.0222,0.0242,0.0246,0.0259,0.0245,0.0247,0.017,0.0167,0.0132,0.0102,0.008,0.0085,0.0055,0.0005,0.0105,0.0171,0.0049,0.0117,0.0115,0.0114,0,0.0142,0.016,0.0203,0.0207,0.0224,0.0247,0.026,0.0275,0.0315,0.0361,0.0422,0.0403,0.0456,0.039,0.0313,0.0252,0.0337,0.0249,0.0206,0.0204,0.0209,0.0204,0.0177,0.0275,0.0275,0.0274,0.0274,0,0.019,0.0227,0.0244,0.0272,0.0344,0.0326,0.0413,0.0418,0.0478,0.057,0.0519,0.062,0.0515,0.0533,0.0412,0.037,0.042,0.0247,0.0242,0.0218,0.0212,0.0119,0.0047,0.0279,0.0278,0.0277,0.0276,0,0.0261,0.0261,0.0322,0.0358,0.0379,0.0439,0.0514,0.0583,0.0621,0.0754,0.0787,0.0828,0.0851,0.0747,0.0696,0.0541,0.0405,0.0446,0.0436,0.0423,0.0197,0.0128,0.0136,0.0074,0.0407,0.0407,0.0407,0,0.0303,0.0342,0.0405,0.0456,0.0483,0.0563,0.0628,0.066,0.0741,0.089,0.0978,0.1058,0.112,0.1036,0.081,0.0647,0.0497,0.0495,0.034,0.0214,0.0133,0.0077,0.002,0.0377,0.0377,0.0377,0.0377,0,0.04,0.0422,0.0477,0.0573,0.0649,0.0732,0.0826,0.0907,0.0978,0.1096,0.1266,0.1335,0.128,0.1122,0.0889,0.0736,0.0385,0.0482,0.0362,0.0126,0.0059,-0.0012,0.0274,0.0375,0.0375,0.0375,0.0375,0.0375,0.0488,0.0545,0.0612,0.07,0.0785,0.0884,0.0954,0.1071,0.1211,0.1376,0.1455,0.1578,0.1328,0.1009,0.0818,0.0405,0.0402,0.0229,0.0171,0.0138,0.0022,0.0308,0.0373,0.0373,0.0374,0.0374,0.0374,0,0.0587,0.064,0.0733,0.0824,0.0909,0.0932,0.1072,0.1146,0.1308,0.1499,0.1632,0.157,0.1259,0.0922,0.0371,0.0115,0.0008,-0.0016,-0.0102,-0.014,0.0139,0.0075,0.0064,0.0064,0.0064,0.0064,0.0065,0.0065,0.0649,0.0738,0.0763,0.0899,0.0963,0.1059,0.1125,0.1259,0.14,0.1591,0.167,0.1711,0.1398,0.0524,-0.0047,-0.0166,-0.0347,-0.0356,-0.0441,-0.0275,-0.0258,-0.0241,-0.032,-0.0413,-0.0414,-0.0709,-0.0712,-0.0714]}],[{"header":{"parameterUnit":"m.s-1","parameterCategory":2,"la1":30.2991,"la2":30.254,"lo1":-89.0895,"lo2":-89.0444,"dy":0.0017,"dx":0.0017,"nx":28,"ny":28,"refTime":"2024-03-21T09:00:00:Z","depth":"2","parameterNumber":2,"parameterNumberName":"U-component_of_CURRENTS"},"data":[0,0,0,0,0,0,0,0,0,0,0,0,0,0,0,0,0,0,0,0,0,0,0,0,0,0,0,0,0,0,0,0,0,0,0,0,0,0,0,0,0,0,0,0,0,0,0,0,0,0,0,0,0,0,0,0,0,0,0.1813,0.1813,0,0.1828,0.1828,0.1827,0.182,0.182,0.182,0.182,0.1855,0.1856,0.1857,0,0,0,0,0,0,0,0,0,0,0,0,0,0.1801,0.18,0.1813,0.1813,0.1814,0.1828,0.1828,0.1827,0.182,0.182,0.182,0.182,0.1855,0.1856,0.1857,0,0,0,0,0,0,0,0,0,0,0,0,0,0.1806,0.18,0.1813,0.1815,0.1815,0.1828,0.1828,0.1827,0.182,0.182,0.182,0.182,0.1855,0.1856,0.1858,0.1867,0,0,0.1862,0.1863,0,0,0,0,0,0,0,0,0.1805,0.1806,0.1814,0.1815,0.1815,0.1825,0.1837,0.1843,0.182,0.1814,0.182,0.182,0.185,0.1852,0.1849,0.1869,0.187,0.1862,0.1863,0.1864,0.1864,0,0,0,0,0,0,0,0.1805,0.1805,0.1814,0.1815,0.1816,0.1823,0.1823,0.1838,0.1829,0.1814,0.1815,0.1823,0.185,0.1847,0.1849,0.1871,0.1862,0.1863,0.1864,0.1865,0.195,0.1952,0,0,0,0,0,0,0.181,0.1805,0.1814,0.1815,0.1815,0.1824,0.1824,0.1819,0.1828,0.1831,0.1823,0.1823,0.1845,0.1848,0.1851,0.1904,0.1864,0.1865,0.1866,0.1949,0.1951,0.1952,0,0,0,0,0,0,0.181,0.181,0.1813,0.1815,0.1816,0.1824,0.1819,0.1819,0.1828,0.1836,0.1838,0.1833,0.1845,0.1849,0.187,0.1904,0.1866,0.1867,0.1947,0.195,0.1951,0.1985,0,0,0,0,0,0,0.1809,0.181,0.1814,0.1814,0.1816,0.1836,0.1819,0.182,0.1834,0.1834,0.1845,0.1847,0.1845,0.1867,0.1871,0.1905,0.1868,0.1946,0.1948,0.1951,0.1982,0.1988,0.1993,0,0,0,0,0,0.1808,0.1814,0.1814,0.1816,0.1819,0.1837,0.1839,0.1842,0.1835,0.1847,0.1846,0.1847,0.1887,0.1869,0.1873,0.1909,0.1944,0.1948,0.1951,0.198,0.1987,0.1993,0,0,0,0,0,0,0.1814,0.1815,0.1814,0.182,0.1836,0.1838,0.1848,0.185,0.1857,0.1857,0.1856,0.1859,0.1897,0.1896,0.1876,0.1943,0.1921,0.1925,0.1941,0.1948,0.1954,0.1975,0.1869,0,0,0,0,0,0.1817,0.182,0.1828,0.1837,0.1841,0.1846,0.1855,0.186,0.1866,0.1869,0.1878,0.1891,0.1912,0.1922,0.1941,0.1969,0.1989,0.1998,0.2004,0.2008,0.203,0.2086,0.2098,0.1963,0.1963,0.1963,0,0,0.182,0.1825,0.1826,0.1839,0.1844,0.1863,0.185,0.187,0.1887,0.1874,0.1899,0.1913,0.1925,0.1959,0.1977,0.1962,0.2055,0.2012,0.2016,0.2035,0.2091,0.2104,0.2116,0.1965,0.1964,0.1964,0,0,0.1835,0.1833,0.1841,0.1853,0.1874,0.1884,0.1894,0.1907,0.1911,0.1937,0.1938,0.1969,0.1992,0.2012,0.2022,0.207,0.2086,0.2082,0.2123,0.2177,0.2189,0.2199,0.2229,0.2243,0.208,0.208,0.208,0,0.1847,0.1849,0.1851,0.1866,0.188,0.1896,0.1916,0.1927,0.195,0.1959,0.1954,0.2017,0.202,0.2074,0.209,0.2084,0.2112,0.2092,0.2184,0.2195,0.2206,0.2234,0.2248,0.2082,0.2082,0.2082,0.2082,0,0.1859,0.1871,0.1878,0.1901,0.1921,0.194,0.196,0.1987,0.1999,0.2009,0.2065,0.2082,0.2124,0.2132,0.2123,0.2205,0.2199,0.2187,0.2166,0.2222,0.2248,0.2262,0.2085,0.2084,0.2084,0.2083,0,0,0.1863,0.1883,0.1887,0.1901,0.1937,0.1956,0.1994,0.203,0.2064,0.2093,0.2141,0.218,0.2201,0.2217,0.2228,0.2273,0.2354,0.2266,0.2267,0.2293,0.247,0.2352,0.2356,0.2363,0.2366,0.2368,0.2454,0,0.1876,0.1902,0.1914,0.1954,0.1968,0.1997,0.2038,0.2075,0.2107,0.216,0.2189,0.2245,0.2229,0.2269,0.2311,0.2359,0.2396,0.2331,0.2416,0.2418,0.2305,0.237,0.216,0.221,0.2468,0.247,0.2472,0,0.1882,0.19,0.1929,0.1977,0.1988,0.2025,0.2096,0.2135,0.2204,0.2238,0.23,0.2321,0.2406,0.2379,0.2492,0.2457,0.2471,0.2492,0.2495,0.2388,0.2327,0.22,0.2226,0.2495,0.2493,0.2491,0.249,0,0.1873,0.1913,0.1938,0.1948,0.2008,0.2039,0.2087,0.2156,0.2195,0.2302,0.2352,0.2438,0.2498,0.2555,0.258,0.2556,0.2688,0.2653,0.2555,0.2546,0.2386,0.2357,0.2724,0.2724,0.2724,0.2724,0.2723,0,0.1871,0.1893,0.1937,0.1947,0.1996,0.2045,0.2113,0.2178,0.2272,0.2324,0.2399,0.2464,0.255,0.2607,0.2627,0.2638,0.2726,0.2585,0.2571,0.2387,0.2359,0.2619,0.2606,0.2727,0.2726,0.2726,0.2725,0,0.185,0.1877,0.1908,0.1967,0.1988,0.2027,0.2116,0.2167,0.2277,0.2358,0.2399,0.251,0.2592,0.264,0.2731,0.2683,0.2716,0.2685,0.2448,0.2404,0.2525,0.2512,0.2602,0.2599,0.2596,0.2594,0.2592,0,0.1834,0.185,0.1905,0.1922,0.1947,0.2008,0.2054,0.2165,0.2207,0.2367,0.2394,0.2505,0.2531,0.262,0.2596,0.2606,0.2665,0.2385,0.2287,0.254,0.2519,0.251,0.2502,0.2092,0.2086,0.2082,0.2078,0,0.1809,0.1836,0.1855,0.1894,0.1935,0.1969,0.203,0.2054,0.2181,0.2252,0.2338,0.238,0.2449,0.2355,0.2352,0.2325,0.2369,0.2283,0.2648,0.2137,0.2061,0.2039,0.2047,0.2035,0.2039,0.2042,0.2045,0.2046,0.1786,0.1789,0.1825,0.1852,0.1894,0.1905,0.1896,0.1939,0.1985,0.2024,0.2163,0.216,0.2179,0.2063,0.2006,0.1963,0.2119,0.2003,0.2018,0.2038,0.1945,0.1866,0.1786,0.1789,0.1791,0.1793,0.1795,0,0.1745,0.1755,0.1778,0.1798,0.1801,0.1858,0.1857,0.1826,0.1796,0.1838,0.1868,0.1726,0.1654,0.1696,0.1564,0.1541,0.1535,0.1466,0.1446,0.1489,0.1527,0.1408,0.1108,0.1106,0.1104,0.1102,0,0,0.1725,0.1718,0.172,0.1696,0.171,0.1668,0.1634,0.1583,0.1563,0.1484,0.1442,0.1559,0.1631,0.1354,0.1307,0.1188,0.1329,0.1132,0.1683,0.1703,0.1739,0.1834,0.1698,0,0,0,0,0]},{"header":{"parameterUnit":"m.s-1","parameterCategory":2,"la1":30.2991,"la2":30.254,"lo1":-89.0895,"lo2":-89.0444,"dy":0.0017,"dx":0.0017,"nx":28,"ny":28,"refTime":"2024-03-21T09:00:00:Z","depth":"2","parameterNumber":3,"parameterNumberName":"V-component_of_CURRENTS"},"data":[0,0,0,0,0,0,0,0,0,0,0,0,0,0,0,0,0,0,0,0,0,0,0,0,0,0,0,0,0,0,0,0,0,0,0,0,0,0,0,0,0,0,0,0,0,0,0,0,0,0,0,0,0,0,0,0,0,0,0.0031,0.0031,0,0.0,0.0,-0.0,-0.0024,-0.0025,-0.0025,-0.0025,-0.0064,-0.0065,-0.0066,0,0,0,0,0,0,0,0,0,0,0,0,0,0.006,0.0059,0.0031,0.0031,0.003,0.0,0.0,-0.0,-0.0024,-0.0025,-0.0025,-0.0025,-0.0064,-0.0065,-0.0066,0,0,0,0,0,0,0,0,0,0,0,0,0,0.0041,0.0059,0.0031,0.0014,0.0012,0.0,-0.0,-0.0,-0.0024,-0.0025,-0.0025,-0.0026,-0.0064,-0.0065,-0.0066,-0.0065,0,0,-0.007,-0.007,0,0,0,0,0,0,0,0,0.0042,0.004,0.0017,0.0015,0.0013,-0.0009,-0.0004,-0.0023,-0.0024,-0.001,-0.0025,-0.0026,-0.0047,-0.0049,-0.0053,-0.0067,-0.0068,-0.007,-0.007,-0.0071,-0.0071,0,0,0,0,0,0,0,0.0043,0.0041,0.0019,0.0017,0.0014,0.0005,0.0002,-0.0008,-0.0025,-0.0011,-0.0013,-0.0017,-0.0048,-0.0052,-0.0054,-0.0069,-0.007,-0.0071,-0.0071,-0.0072,-0.0081,-0.008,0,0,0,0,0,0,0.0047,0.0042,0.002,0.0019,0.0026,0.0005,0.0001,-0.0001,-0.0025,-0.0029,-0.0017,-0.0018,-0.005,-0.0053,-0.0056,-0.0044,-0.0071,-0.0072,-0.0073,-0.0081,-0.0081,-0.008,0,0,0,0,0,0,0.0047,0.0045,0.0022,0.0029,0.0025,0.0005,0.0002,-0.0001,-0.0007,-0.0029,-0.0034,-0.0019,-0.005,-0.0054,-0.0055,-0.0046,-0.0073,-0.0074,-0.0082,-0.0081,-0.008,-0.0027,0,0,0,0,0,0,0.0049,0.0046,0.0045,0.0029,0.0025,0.0018,0.0002,-0.0002,-0.001,-0.0012,-0.0033,-0.0037,-0.0051,-0.0053,-0.0056,-0.0048,-0.0074,-0.0082,-0.0081,-0.0081,-0.0029,-0.0024,-0.002,0,0,0,0,0,0.005,0.0053,0.0045,0.0043,0.0025,0.0018,0.0016,-0.0,-0.0009,-0.0008,-0.0017,-0.0036,-0.005,-0.0053,-0.0057,-0.0049,-0.0083,-0.0082,-0.0081,-0.0031,-0.0025,-0.002,0,0,0,0,0,0,0.0062,0.0051,0.0042,0.004,0.0031,0.0014,0.0014,0.0002,-0.0005,-0.0005,-0.0027,-0.0031,-0.003,-0.0046,-0.0049,-0.005,-0.0071,-0.0071,-0.0032,-0.0027,-0.0023,-0.0015,-0.0075,0,0,0,0,0,0.0065,0.0066,0.0052,0.005,0.0049,0.0032,0.0026,0.0017,0.0008,0.0004,-0.0009,-0.0022,-0.0028,-0.0033,-0.0042,-0.004,-0.0058,-0.0039,-0.0034,-0.0031,-0.0027,-0.0037,-0.0032,-0.0077,-0.0077,-0.0077,0,0,0.0068,0.0062,0.0062,0.0053,0.0045,0.0053,0.0028,0.0025,0.0033,0.0001,0.0011,-0.0006,-0.0024,-0.002,-0.0021,-0.0032,-0.0028,-0.0029,-0.0026,-0.0024,-0.0035,-0.0031,-0.0027,-0.0076,-0.0076,-0.0076,0,0,0.0084,0.0072,0.0084,0.0081,0.0074,0.0066,0.0067,0.0055,0.0053,0.0057,0.0038,0.0031,0.0019,0.0011,0.0005,0.0028,-0.0004,0.0019,0.0048,0.004,0.0043,0.0046,0.0027,0.0027,0.0021,0.0021,0.0021,0,0.0088,0.0101,0.0085,0.0098,0.0102,0.0076,0.0093,0.0089,0.0078,0.0083,0.0067,0.0056,0.0036,0.0046,0.0049,0.0039,0.0023,0.0032,0.0046,0.0049,0.0051,0.003,0.003,0.0024,0.0024,0.0023,0.0023,0,0.0116,0.0127,0.0135,0.0145,0.0146,0.0155,0.0149,0.0152,0.0143,0.0136,0.014,0.0116,0.0109,0.0099,0.0079,0.0086,0.0066,0.0054,0.0035,0.0059,0.0035,0.0034,0.0028,0.0027,0.0026,0.0025,0,0,0.0127,0.0151,0.0155,0.0173,0.0174,0.018,0.0197,0.0207,0.0224,0.0206,0.0227,0.0203,0.0182,0.0173,0.0146,0.0132,0.0126,0.0099,0.0097,0.0083,0.0098,0.0068,0.0063,0.0117,0.0117,0.0117,0.0074,0,0.0156,0.0198,0.0198,0.0237,0.0259,0.0249,0.0269,0.0272,0.0269,0.0282,0.0256,0.026,0.0213,0.0211,0.019,0.0149,0.0127,0.0139,0.0073,0.0071,0.0045,0.0063,0.0086,0.0048,0.0073,0.0073,0.0073,0,0.0189,0.0214,0.0259,0.0294,0.0303,0.0321,0.0349,0.0362,0.0368,0.0366,0.036,0.0335,0.0319,0.0273,0.0213,0.0222,0.0162,0.0121,0.0118,0.0071,0.004,0.0028,0.0046,0.0072,0.0072,0.0072,0.0072,0,0.0218,0.0259,0.0299,0.031,0.0341,0.0364,0.0378,0.039,0.0415,0.0422,0.0441,0.0406,0.0405,0.0331,0.024,0.0228,0.0168,0.0144,0.0056,0.0053,0.005,0.0046,0.0093,0.0093,0.0093,0.0093,0.0093,0,0.0254,0.0287,0.0319,0.0344,0.0394,0.04,0.045,0.0459,0.0485,0.0532,0.0488,0.0519,0.0419,0.0372,0.0271,0.0167,0.0192,0.0064,0.0044,0.0068,0.0066,0.0068,0.0065,0.0091,0.0092,0.0092,0.0092,0,0.0284,0.0304,0.0353,0.0394,0.0412,0.0447,0.0503,0.0539,0.0556,0.0618,0.0628,0.0611,0.0553,0.0437,0.0323,0.0218,0.0113,0.0063,0.0091,0.0074,-0.0009,-0.0008,-0.0035,-0.0036,-0.0037,-0.0038,-0.0039,0,0.0305,0.0334,0.039,0.0421,0.0444,0.0497,0.0538,0.0572,0.062,0.0684,0.0724,0.0691,0.0682,0.0497,0.0312,0.013,0.0104,0.0016,-0.0009,-0.0003,-0.002,-0.0017,-0.0015,0.0007,0.0006,0.0006,0.0006,0,0.0342,0.0358,0.0395,0.0459,0.051,0.0573,0.064,0.0693,0.0749,0.0814,0.089,0.0889,0.072,0.0553,0.0289,0.0164,0.0046,0.0002,0.0019,0.0032,0.0032,0.0017,0.0019,0.0003,0.0003,0.0004,0.0004,0.0004,0.0363,0.0391,0.0437,0.05,0.0558,0.0643,0.0708,0.0795,0.0895,0.0993,0.099,0.0985,0.0792,0.0457,0.025,0.0023,0.0027,-0.006,-0.0057,-0.0054,-0.0045,-0.0048,-0.009,-0.009,-0.0091,-0.0091,-0.0091,0,0.0389,0.0422,0.0476,0.0551,0.0617,0.0651,0.077,0.0855,0.099,0.1048,0.1102,0.0912,0.072,0.0491,0.016,-0.0042,-0.0049,-0.0111,-0.0066,-0.0062,-0.0059,-0.0049,-0.0095,-0.0096,-0.0097,-0.0097,0,0,0.0402,0.0451,0.0478,0.0585,0.0643,0.0746,0.0821,0.0958,0.1033,0.1104,0.1084,0.1038,0.0774,0.0531,0.0274,0.0091,0.0055,0.0048,0.0073,0.016,0.0166,-0.0009,0.0013,0,0,0,0,0]}],[{"header":{"parameterUnit":"m.s-1","parameterCategory":2,"la1":30.2991,"la2":30.254,"lo1":-89.0895,"lo2":-89.0444,"dy":0.0017,"dx":0.0017,"nx":28,"ny":28,"refTime":"2024-03-21T09:00:00:Z","depth":"4","parameterNumber":2,"parameterNumberName":"U-component_of_CURRENTS"},"data":[0,0,0,0,0,0,0,0,0,0,0,0,0,0,0,0,0,0,0,0,0,0,0,0,0,0,0,0,0,0,0,0,0,0,0,0,0,0,0,0,0,0,0,0,0,0,0,0,0,0,0,0,0,0,0,0,0,0,0.0979,0.0979,0,0.1003,0.1003,0.1004,0.1034,0.1034,0.1035,0.1035,0.1102,0.1103,0.1105,0,0,0,0,0,0,0,0,0,0,0,0,0,0.0974,0.0974,0.0979,0.0979,0.0979,0.1003,0.1003,0.1004,0.1033,0.1034,0.1035,0.1035,0.1102,0.1103,0.1105,0,0,0,0,0,0,0,0,0,0,0,0,0,0.0984,0.0973,0.0979,0.0997,0.0999,0.1003,0.1003,0.1004,0.1033,0.1034,0.1035,0.1036,0.1101,0.1103,0.1105,0.1102,0,0,0.1111,0.1112,0,0,0,0,0,0,0,0,0.0984,0.0984,0.0994,0.0996,0.0998,0.1016,0.1026,0.1039,0.1033,0.102,0.1035,0.1036,0.1077,0.1081,0.1083,0.1105,0.1108,0.1111,0.1112,0.1113,0.1114,0,0,0,0,0,0,0,0.0983,0.0984,0.0988,0.0995,0.0997,0.101,0.1012,0.1029,0.1044,0.1021,0.1024,0.1027,0.1079,0.1081,0.1085,0.1109,0.1111,0.1113,0.1114,0.1115,0.1202,0.1203,0,0,0,0,0,0,0.0979,0.0983,0.0987,0.0989,0.0993,0.1009,0.1012,0.101,0.1043,0.1049,0.1026,0.1028,0.1077,0.1082,0.1087,0.1148,0.1113,0.1115,0.1116,0.1201,0.1202,0.1203,0,0,0,0,0,0,0.0979,0.0979,0.0986,0.0987,0.0989,0.1009,0.1006,0.101,0.1035,0.1047,0.1053,0.1051,0.1078,0.1084,0.1119,0.1149,0.1116,0.1118,0.1199,0.1201,0.1203,0.1231,0,0,0,0,0,0,0.0978,0.0978,0.0988,0.0986,0.0989,0.1001,0.1005,0.101,0.1035,0.1038,0.1069,0.1075,0.1079,0.1116,0.1121,0.1151,0.1119,0.1198,0.12,0.1202,0.1228,0.1233,0.1237,0,0,0,0,0,0.0978,0.098,0.0988,0.099,0.0997,0.1001,0.1004,0.102,0.1035,0.1047,0.107,0.1075,0.1134,0.1118,0.1124,0.1155,0.1197,0.1199,0.1202,0.1226,0.1232,0.1237,0,0,0,0,0,0,0.0986,0.0983,0.0993,0.0995,0.1006,0.1007,0.1022,0.1033,0.1059,0.1073,0.1085,0.1091,0.1135,0.114,0.1123,0.1187,0.1168,0.1172,0.1185,0.1191,0.1195,0.1191,0.1121,0,0,0,0,0,0.0991,0.0993,0.0995,0.1003,0.1009,0.1022,0.1032,0.1043,0.1059,0.1072,0.1093,0.112,0.1146,0.1164,0.1184,0.1215,0.123,0.1241,0.1246,0.1249,0.125,0.1308,0.1318,0.1212,0.1212,0.1212,0,0,0.0998,0.0998,0.1001,0.1006,0.1018,0.1025,0.1031,0.105,0.1066,0.1075,0.1115,0.1138,0.1158,0.1194,0.1215,0.1205,0.1285,0.1253,0.1256,0.1254,0.1312,0.1323,0.1332,0.1213,0.1213,0.1213,0,0,0.1002,0.1013,0.1015,0.1025,0.1043,0.1046,0.1056,0.1072,0.1093,0.1127,0.1142,0.1181,0.1218,0.1236,0.125,0.1292,0.1308,0.1306,0.1326,0.1383,0.1392,0.1401,0.1422,0.1432,0.1308,0.1308,0.1308,0,0.1016,0.1013,0.102,0.1026,0.1038,0.1057,0.1066,0.1085,0.1114,0.1139,0.1147,0.1218,0.1237,0.128,0.1296,0.1303,0.1328,0.1303,0.1389,0.1398,0.1406,0.1426,0.1437,0.131,0.131,0.131,0.1309,0,0.1016,0.1025,0.103,0.1041,0.1054,0.1068,0.1088,0.1117,0.1149,0.1173,0.1235,0.126,0.1306,0.1319,0.1321,0.1387,0.1383,0.1389,0.1374,0.1419,0.1437,0.1447,0.1312,0.1312,0.1311,0.1311,0,0,0.1013,0.1026,0.1031,0.1041,0.1065,0.1073,0.1108,0.1142,0.1179,0.1222,0.1275,0.132,0.1351,0.1368,0.1383,0.1424,0.1499,0.1434,0.1436,0.1452,0.1611,0.1475,0.1474,0.153,0.1532,0.1534,0.1596,0,0.1015,0.1021,0.1031,0.1052,0.1056,0.109,0.1119,0.1161,0.1206,0.1264,0.1311,0.137,0.1365,0.1403,0.1444,0.1494,0.1531,0.148,0.1568,0.1569,0.1442,0.1483,0.1541,0.1604,0.1606,0.1608,0.1609,0,0.1005,0.1011,0.1026,0.1055,0.1065,0.1089,0.1148,0.118,0.1261,0.1302,0.1368,0.1413,0.1484,0.1478,0.1576,0.155,0.1584,0.1608,0.1612,0.1482,0.1454,0.1554,0.1629,0.1627,0.1626,0.1625,0.1623,0,0.0982,0.1006,0.1018,0.1029,0.1067,0.1099,0.1134,0.1204,0.1242,0.1343,0.1389,0.1474,0.1537,0.1596,0.1643,0.1635,0.1738,0.1735,0.1635,0.1625,0.1716,0.1707,0.1804,0.1804,0.1804,0.1804,0.1804,0,0.0961,0.0974,0.1017,0.1024,0.1059,0.1099,0.1153,0.1203,0.1283,0.1331,0.1418,0.1463,0.1578,0.1643,0.1672,0.1674,0.1768,0.1639,0.1637,0.1724,0.1715,0.1723,0.1712,0.1806,0.1806,0.1805,0.1805,0,0.0922,0.095,0.0968,0.1021,0.1045,0.1077,0.1153,0.1182,0.1275,0.1341,0.1381,0.1495,0.1575,0.1645,0.1746,0.1701,0.1723,0.1699,0.177,0.1771,0.1565,0.1556,0.1601,0.1597,0.1593,0.159,0.1588,0,0.0894,0.0898,0.0959,0.0976,0.1006,0.1059,0.1082,0.117,0.1199,0.1335,0.1354,0.1477,0.1537,0.1564,0.1645,0.1681,0.1662,0.1653,0.1615,0.1552,0.1548,0.1544,0.1539,0.1582,0.1581,0.1581,0.158,0,0.0842,0.0878,0.0897,0.0924,0.0956,0.098,0.1032,0.1043,0.1141,0.1243,0.1302,0.1353,0.1432,0.1497,0.153,0.1551,0.1649,0.1617,0.1624,0.1588,0.1531,0.1528,0.1528,0.1567,0.1569,0.157,0.1571,0,0.0814,0.0813,0.0841,0.0857,0.0891,0.0885,0.0923,0.0956,0.1002,0.1152,0.1171,0.1296,0.1417,0.1429,0.1459,0.1467,0.1452,0.1402,0.142,0.1434,0.1349,0.125,0.1202,0,0,0,0,0,0.078,0.076,0.0764,0.0771,0.0796,0.0816,0.0872,0.091,0.101,0.1017,0.1093,0.1159,0.1221,0.1287,0.1266,0.1376,0.1447,0.1342,0.1395,0.15,0.1514,0.1427,0,0,0,0,0,0,0.0754,0.0758,0.0735,0.0689,0.0679,0.0691,0.0722,0.079,0.0803,0.0927,0.0973,0.1079,0.1162,0.123,0.1245,0.1263,0.1267,0.1424,0.142,0.1492,0.1505,0.1516,0.1432,0,0,0,0,0]},{"header":{"parameterUnit":"m.s-1","parameterCategory":2,"la1":30.2991,"la2":30.254,"lo1":-89.0895,"lo2":-89.0444,"dy":0.0017,"dx":0.0017,"nx":28,"ny":28,"refTime":"2024-03-21T09:00:00:Z","depth":"4","parameterNumber":3,"parameterNumberName":"V-component_of_CURRENTS"},"data":[0,0,0,0,0,0,0,0,0,0,0,0,0,0,0,0,0,0,0,0,0,0,0,0,0,0,0,0,0,0,0,0,0,0,0,0,0,0,0,0,0,0,0,0,0,0,0,0,0,0,0,0,0,0,0,0,0,0,0.0101,0.0101,0,0.0086,0.0086,0.0086,0.0071,0.0071,0.007,0.007,0.0048,0.0048,0.0048,0,0,0,0,0,0,0,0,0,0,0,0,0,0.0107,0.0107,0.0101,0.0101,0.01,0.0086,0.0086,0.0086,0.0071,0.0071,0.007,0.007,0.0048,0.0048,0.0048,0,0,0,0,0,0,0,0,0,0,0,0,0,0.01,0.0107,0.0101,0.0091,0.009,0.0086,0.0086,0.0086,0.0071,0.0071,0.007,0.007,0.0049,0.0048,0.0047,0.005,0,0,0.0046,0.0045,0,0,0,0,0,0,0,0,0.01,0.0099,0.0093,0.0092,0.0091,0.008,0.008,0.0073,0.0071,0.0078,0.007,0.007,0.0058,0.0057,0.0055,0.0049,0.0048,0.0046,0.0045,0.0045,0.0045,0,0,0,0,0,0,0,0.01,0.01,0.0095,0.0093,0.0091,0.0084,0.0083,0.0079,0.007,0.0078,0.0077,0.0075,0.0058,0.0056,0.0054,0.0048,0.0046,0.0045,0.0045,0.0045,0.0052,0.0052,0,0,0,0,0,0,0.0103,0.01,0.0095,0.0095,0.0095,0.0085,0.0083,0.0084,0.007,0.0068,0.0075,0.0074,0.0057,0.0055,0.0054,0.0074,0.0045,0.0044,0.0044,0.0051,0.0052,0.0052,0,0,0,0,0,0,0.0103,0.0103,0.0096,0.0097,0.0096,0.0085,0.0086,0.0084,0.0081,0.0069,0.0066,0.0074,0.0057,0.0054,0.0059,0.0072,0.0044,0.0044,0.0051,0.0051,0.0052,0.0103,0,0,0,0,0,0,0.0104,0.0103,0.0104,0.0097,0.0096,0.01,0.0086,0.0084,0.008,0.0079,0.0067,0.0065,0.0056,0.006,0.0059,0.0071,0.0043,0.005,0.0051,0.0052,0.01,0.0105,0.0109,0,0,0,0,0,0.0104,0.011,0.0104,0.0104,0.0098,0.01,0.0099,0.009,0.0081,0.0085,0.008,0.0065,0.0065,0.0061,0.0059,0.0071,0.0049,0.0051,0.0052,0.0098,0.0104,0.0109,0,0,0,0,0,0,0.0111,0.0109,0.0103,0.0107,0.0105,0.0098,0.01,0.0092,0.0091,0.009,0.0075,0.0073,0.0081,0.0068,0.0064,0.0075,0.0054,0.0054,0.009,0.0095,0.0099,0.0102,0.0043,0,0,0,0,0,0.0113,0.0119,0.0114,0.0117,0.0117,0.0108,0.0107,0.0102,0.0099,0.0098,0.0092,0.0086,0.0085,0.0084,0.0081,0.0088,0.0059,0.0093,0.0098,0.0102,0.0102,0.0074,0.0076,0.0056,0.0056,0.0056,0,0,0.0116,0.0116,0.0118,0.0119,0.0116,0.0128,0.0107,0.011,0.0121,0.0096,0.0111,0.0102,0.009,0.0102,0.0104,0.0093,0.0091,0.0103,0.0107,0.0105,0.0075,0.0077,0.0079,0.0057,0.0057,0.0057,0,0,0.0131,0.0125,0.0137,0.0141,0.0141,0.0141,0.0143,0.014,0.014,0.0151,0.0138,0.0138,0.0136,0.0134,0.0131,0.0156,0.0116,0.0152,0.0177,0.0151,0.0152,0.0153,0.0112,0.0109,0.0154,0.0154,0.0154,0,0.0133,0.0148,0.0141,0.0156,0.0162,0.015,0.0167,0.0168,0.0169,0.0171,0.0163,0.0161,0.0152,0.0162,0.0173,0.0167,0.0137,0.016,0.0156,0.0156,0.0156,0.0115,0.0111,0.0157,0.0156,0.0156,0.0156,0,0.0158,0.0171,0.018,0.0197,0.0204,0.0216,0.0219,0.0226,0.0223,0.022,0.0226,0.0216,0.0211,0.0211,0.0201,0.0201,0.0175,0.0166,0.0143,0.0161,0.0116,0.0111,0.016,0.0159,0.0159,0.0158,0,0,0.0162,0.0192,0.0196,0.0212,0.0227,0.0236,0.0258,0.027,0.0279,0.0278,0.0285,0.0286,0.0269,0.0264,0.0248,0.0229,0.0204,0.02,0.0197,0.016,0.013,0.0119,0.0111,0.0192,0.0192,0.0191,0.0097,0,0.0185,0.0223,0.0232,0.0269,0.0289,0.029,0.0313,0.0321,0.0319,0.0323,0.0307,0.0308,0.0292,0.0287,0.0268,0.0221,0.0193,0.023,0.0118,0.0114,0.0102,0.0106,0.019,0.0093,0.0092,0.0091,0.009,0,0.0208,0.0231,0.0272,0.0308,0.0316,0.0339,0.0362,0.0378,0.0379,0.0376,0.0368,0.0346,0.0328,0.0307,0.0233,0.0254,0.0196,0.0156,0.0151,0.0119,0.0093,0.0071,0.008,0.008,0.0081,0.0082,0.0083,0,0.0218,0.026,0.0294,0.0306,0.0344,0.0364,0.0384,0.0395,0.041,0.0404,0.0405,0.0373,0.0356,0.029,0.0206,0.0215,0.0109,0.0108,0.004,0.0038,0.0053,0.0053,0.0047,0.0047,0.0047,0.0048,0.0048,0,0.0238,0.0266,0.0303,0.0322,0.0362,0.0382,0.0419,0.0428,0.0444,0.0462,0.0431,0.0426,0.035,0.0282,0.0205,0.0102,0.0103,0.0041,0.0016,0.0075,0.0079,0.0048,0.005,0.0044,0.0045,0.0046,0.0046,0,0.0244,0.0269,0.0308,0.0352,0.037,0.0396,0.0448,0.047,0.0481,0.05,0.05,0.0458,0.0374,0.0279,0.0161,0.0101,0.0003,-0.0038,0.0019,-0.0001,-0.0052,-0.0047,-0.0116,-0.0117,-0.0118,-0.0119,-0.012,0,0.025,0.0272,0.0324,0.0347,0.0371,0.0417,0.0452,0.0486,0.0511,0.0519,0.0526,0.0457,0.0416,0.024,0.0138,-0.0021,-0.0038,-0.0098,-0.0057,-0.005,-0.0068,-0.0061,-0.0055,-0.0121,-0.0121,-0.0122,-0.0122,0,0.0255,0.0273,0.0301,0.0351,0.0394,0.0446,0.0497,0.052,0.0558,0.0564,0.0548,0.0468,0.037,0.0244,0.0112,0.0004,-0.0059,-0.0108,-0.0107,-0.0068,-0.0057,-0.0072,-0.0065,-0.0125,-0.0125,-0.0124,-0.0124,0,0.0252,0.0268,0.0305,0.0351,0.0405,0.0463,0.0494,0.0532,0.0562,0.0577,0.0565,0.0472,0.0421,0.0254,0.0135,0.0024,0.0007,-0.0023,-0.0026,-0.0023,0.0038,0.0067,0.0014,0,0,0,0,0,0.0248,0.0267,0.0304,0.0359,0.0414,0.0454,0.0519,0.0547,0.0584,0.0579,0.058,0.0493,0.0336,0.0264,0.0153,0.0108,-0.0025,-0.0028,-0.0063,-0.0143,-0.014,-0.0084,0,0,0,0,0,0,0.0242,0.0273,0.0296,0.0361,0.0402,0.0471,0.0519,0.0546,0.0548,0.0565,0.0483,0.0458,0.03,0.0397,0.0147,0.0114,0.0075,-0.0098,-0.0101,-0.0146,-0.0142,-0.0139,-0.008,0,0,0,0,0]}]]